Date,TemperatureHighF,TemperatureAvgF,TemperatureLowF,DewpointHighF,DewpointAvgF,DewpointLowF,HumidityHigh,HumidityAvg,HumidityLow,PressureMaxIn,PressureMinIn,WindSpeedMaxMPH,WindSpeedAvgMPH,GustSpeedMaxMPH,PrecipitationSumIn
2013-1-8,42,27,14,18,12,1,67,52,38,29.95,29.80,9,3,17,0.00
2013-1-9,37,32,22,24,19,13,73,59,50,29.99,29.54,5,2,11,0.00
2013-1-10,44,36,26,30,20,14,83,53,39,30.11,29.55,10,3,25,0.01
2013-1-11,38,30,23,30,19,12,86,63,38,30.10,29.82,4,1,9,0.01
2013-1-12,38,35,33,36,32,30,93,88,85,29.82,29.70,4,1,7,0.11
2013-1-13,42,38,34,40,35,31,95,91,88,29.75,26.68,4,2,8,0.04
2013-1-14,54,42,32,49,34,19,95,76,45,29.82,29.44,8,3,19,0.02
2013-1-15,34,33,32,23,21,20,66,61,56,29.85,29.81,2,0,7,0.00
2013-1-16,29,28,27,24,22,21,82,78,75,29.55,29.37,2,0,4,0.00
2013-1-17,28,27,27,23,22,22,82,82,81,29.38,29.37,0,0,0,0.00
2013-1-20,41,29,23,12,0,-7,33,28,23,29.44,29.12,16,12,30,0.09
2013-1-21,25,20,13,9,-3,-16,68,39,19,29.63,29.39,9,3,14,0.00
2013-1-22,24,14,5,8,-3,-20,68,50,23,29.61,29.35,10,2,22,0.00
2013-1-23,6,0,-4,-17,-28,-34,40,24,17,29.67,29.58,11,4,24,0.01
2013-1-24,11,2,-6,-20,-28,-33,30,23,17,29.70,29.54,12,6,24,0.00
2013-1-25,17,9,2,-13,-18,-22,40,28,19,29.79,29.61,10,5,16,0.00
2013-1-26,21,12,5,-8,-14,-21,44,30,17,29.73,29.55,8,3,15,0.00
2013-1-27,25,14,9,-9,-14,-20,39,27,18,29.98,29.70,10,5,21,0.00
2013-1-28,22,18,10,12,-3,-20,69,42,20,29.98,29.64,4,1,8,0.00
2013-1-29,34,21,11,27,12,2,86,67,59,29.77,29.62,4,1,6,0.00
2013-1-30,54,41,32,52,38,28,95,91,87,29.70,29.03,7,2,14,0.28
2013-1-31,60,56,53,55,53,50,95,89,81,29.03,28.46,15,10,35,0.90